This is the latest recevied weather packets stored in our database for station/object KA2FNK. If no packets are shown the sender has not sent any weather packets the latest 10 day(s).
| Time | Temp. | Humidity | Pressure | Rain* | Wind** | Luminosity | Snow |
|---|---|---|---|---|---|---|---|
| 1777993430 | 8.33° C | 94% | 1012 hPa | 0.25 mm | - | - | - |
| 1777993129 | 8.33° C | 95% | 1012 hPa | 0.51 mm | - | - | - |
| 1777992828 | 8.33° C | 95% | 1011.7 hPa | 0.51 mm | - | - | - |
| 1777992527 | 8.33° C | 95% | 1011.6 hPa | 0.76 mm | - | - | - |
| 1777992226 | 8.33° C | 95% | 1011.9 hPa | 1.02 mm | - | - | - |
| 1777991925 | 8.33° C | 95% | 1011.9 hPa | 1.02 mm | - | - | - |
| 1777991624 | 8.89° C | 95% | 1011.6 hPa | 1.02 mm | - | - | - |
| 1777991323 | 8.89° C | 95% | 1011.8 hPa | 1.02 mm | - | - | - |
| 1777991022 | 8.89° C | 95% | 1011.8 hPa | 1.27 mm | - | - | - |
| 1777990721 | 8.33° C | 95% | 1012.1 hPa | 1.52 mm | - | - | - |
| 1777990421 | 8.89° C | 94% | 1011.8 hPa | 2.29 mm | - | - | - |
| 1777989818 | 8.89° C | 92% | 1011.6 hPa | 3.05 mm | - | - | - |
| 1777989517 | 8.89° C | 92% | 1011.8 hPa | 2.79 mm | - | - | - |
| 1777989216 | 8.89° C | 92% | 1011.5 hPa | 2.79 mm | - | - | - |
| 1777988915 | 8.89° C | 91% | 1011.6 hPa | 2.54 mm | - | - | - |
| 1777988614 | 8.89° C | 95% | 1011.8 hPa | 2.29 mm | - | - | - |
| 1777988313 | 8.89° C | 95% | 1011.4 hPa | 2.29 mm | - | - | - |
| 1777988012 | 8.89° C | 94% | 1012 hPa | 2.29 mm | - | - | - |
| 1777987711 | 9.44° C | 91% | 1011.9 hPa | 2.29 mm | - | - | - |
| 1777987410 | 9.44° C | 89% | 1011.2 hPa | 2.03 mm | - | - | - |
| 1777987109 | 9.44° C | 88% | 1010.9 hPa | 1.78 mm | - | - | - |
| 1777986808 | 9.44° C | 87% | 1011 hPa | 0.51 mm | - | - | - |
| 1777986507 | 9.44° C | 85% | 1010.8 hPa | 0 mm | - | - | - |
| 1777986207 | 9.44° C | 85% | 1012.2 hPa | 0.25 mm | - | - | - |
| 1777985905 | 9.44° C | 85% | 1010.6 hPa | 0.25 mm | - | - | - |
* Rain latest hour (hover to see other rain measurements)
** Current wind speed in m/s (hover to see current wind gust speed)